Weather Roundup
Issued by NWS

Home | Current Version | Previous Version | Graphics & Text | Print | Product List | Glossary Off
Versions: 1 2 3 4 5 6 7 8 9 10 11 12 13 14 15 16 17 18 19 20 21 22 23 24 25 26 27 28 29 30 31 32 33 34 35 36 37 38 39 40 41 42 43 44 45 46 47 48 49 50

000
NZUS93 KARX 280459
HRRWXR

CURRENT HOURLY OBSERVATIONS ACROSS
MUCH OF THE UPPER MISSISSIPPI VALLEY
NATIONAL WEATHER SERVICE LA CROSSE WI
1100 PM CST TUE JAN 27 2015


...SOUTHEAST MINNESOTA...


CITY           SKY/WX    TMP DP  RH WIND       PRES   REMARKS
ROCHESTER      CLOUDY    28  24  85 S14       30.13F WCI  17
ROCHESTER/MAYO CLOUDY    28  24  83 SE8       30.14S WCI  20
WINONA         CLOUDY    30  23  74 SE6       30.20F WCI  24
AUSTIN         CLOUDY    28  27  93 SE10      30.12S WCI  19
ALBERT LEA     CLOUDY    28  28 100 S12       30.11R WCI  18
DODGE CENTER   CLOUDY    28  27  93 S13       30.11S WCI  18
PRESTON        CLOUDY    27  23  87 S12       30.14F WCI  16
OWATONNA       CLOUDY    30  27  86 SE12      30.10F WCI  21
FARIBAULT      CLOUDY    30  28  93 SE9       30.11S WCI  22
$$

...ELSEWHERE IN MINNESOTA...


CITY           SKY/WX    TMP DP  RH WIND       PRES   REMARKS
MINNEAPOLIS    CLOUDY    31  26  82 SE10      30.11F WCI  22
INTNL FALLS    CLOUDY    29  25  85 SE5       30.00F WCI  24
DULUTH         CLOUDY    27  22  81 S9        30.08S WCI  18
RED WING       CLOUDY    30  25  80 S6G16     30.14F WCI  24
REDWOOD FALLS  CLOUDY    33  31  92 SE17      30.03S WCI  22
MANKATO        CLOUDY    32  27  80 SE14      30.08F WCI  22
WORTHINGTON    CLEAR     34  28  80 S13G18    29.99S WCI  25
FAIRMONT       CLOUDY    32  27  80 S16G25    30.06S WCI  21
$$

...SOUTHWEST WISCONSIN...


CITY           SKY/WX    TMP DP  RH WIND       PRES   REMARKS
LA CROSSE      CLOUDY    29  22  75 SE8       30.21S WCI  21
PRAIRIE DU CHI CLOUDY    28  21  75 SE7       30.23S WCI  20
BOSCOBEL       CLOUDY    28  22  78 S3        30.23S
LONE ROCK      NOT AVBL
PLATTEVILLE    CLOUDY    27  24  88 S9        30.21S WCI  18
FORT MC COY    CLOUDY    26  22  84 S3        30.23R
VIROQUA        CLOUDY    25  22  89 S6        30.19R WCI  18
WIS DELLS      NOT AVBL
$$

...ELSEWHERE IN WISCONSIN...


CITY           SKY/WX    TMP DP  RH WIND       PRES   REMARKS
MILWAUKEE      CLOUDY    27  18  69 E5        30.25S WCI  22
MADISON        CLOUDY    26  21  81 SE5       30.23S WCI  20
GREEN BAY      CLOUDY    17  14  88 CALM      30.24F
EAU CLAIRE     CLOUDY    26  20  77 SE8       30.17F WCI  18
BLACK RVR FLS  CLOUDY    26  22  87 CALM      30.21S
MEDFORD        CLOUDY    21  19  93 S7        30.16S WCI  13
WAUSAU         CLOUDY    23  20  88 S6        30.18S WCI  16
WIS RAPIDS     CLOUDY    24  19  81 S3        30.23R
MARSHFIELD     CLOUDY    25  22  88 S7        30.18F FOG     WCI  17
RICE LAKE      PTCLDY    25  20  84 SE6       30.16F WCI  18
$$

...NORTHEAST IOWA...


CITY           SKY/WX    TMP DP  RH WIND       PRES   REMARKS
DECORAH        CLOUDY    27  23  86 S7G15     30.17F WCI  19
MASON CITY     CLOUDY    29  27  92 S17       30.14R WCI  17
CHARLES CITY   CLOUDY    28  27  93 S13       30.15F WCI  18
OELWEIN        CLOUDY    28  25  86 SE13      30.18F WCI  18
$$

...ELSEWHERE IN IOWA...


CITY           SKY/WX    TMP DP  RH WIND       PRES   REMARKS
DES MOINES     CLEAR     31  27  85 SE10      30.13F WCI  22
IOWA CITY      CLOUDY    28  24  85 SE8       30.24S WCI  20
FORT DODGE     PTCLDY    30  25  80 SE10      30.09F WCI  21
$$

...NORTHERN ILLINOIS...


CITY           SKY/WX    TMP DP  RH WIND       PRES   REMARKS
CHICAGO-OHARE  MOCLDY    21  16  81 CALM      30.26R
CHICAGO-MIDWAY PTCLDY    25  18  74 CALM      30.26S
MOLINE         CLOUDY    27  22  81 SE7       30.25R WCI  19
ROCKFORD       CLOUDY    24  18  77 SE5       30.27R WCI  18
PEORIA         CLOUDY    31  24  75 SE7       30.25F WCI  24
$$

NOTE: "FAIR" INDICATES FEW OR NO CLOUDS BELOW 12,000 FEET WITH NO
SIGNIFICANT WEATHER AND/OR OBSTRUCTIONS TO VISIBILITY. WIND
SPEEDS ARE IN MILES-PER-HOUR.



USA.gov is the U.S. government's official web portal to all federal, state and local government web resources and services.